Showing default

EAGLEEYE, 60508

Orbit data source: Space-Track

EAGLEEYE, 60508 is a Polish payload satellite in SSO that was launched on Fri, 16 Aug 2024 UTC via an FALCON 9 launch vehicle from the Air Force Western Test Range (AFWTR). Payload-class satellites include a variety of spacecraft equipped with specific instruments for various scientific and technological missions. These include communications satellites like Starlink; space stations such as the ISS; scientific satellites like the Hubble; Earth observation satellites from companies like Planet Labs, Umbra, and HawkEye 360; GPS; miniature CubeSats for education and research; and military/defense satellites.

Loading next visibility...
Identifier
60508, 2024-149AS
Orbit
SSO
Last TLE update
11 hours ago
Origin
Manufacturer
CREO
Mission
Operational Commercial Imaging
Bus & Motor
HYPERSAT, Unknown motor
Mass
55 kg wet, 55 kg dry
Launch date (UTC)
2024-08-16 (11 months ago)
Launch vehicle
FALCON 9
Launch site
Air Force Western Test Range (AFWTR)
Object type
Payload
Rocket body
Debris
Shape & HBR
Box + 2 Pan, 1.5 m
Radar Cross Section
0.714 m², Medium (>0.1 m² and < 1m²)

Expand to show TLE details & history

TLE from 11 hours ago
0 EAGLEEYE
1 60508U 24149AS  25182.75792859  .00015565  00000-0  45239-3 0  9997
2 60508  97.4066 262.5672 0005645  96.0631 264.1256 15.35538197 48676
Epoch: 2025-07-01T18:11Z
TLE epoch observation values (Epoch: 2025-07-01T18:11:25.03Z)
Latitude
Longitude
69.66412°
Altitude
462.831 km
Speed
7.635 km/s
True Right ascension
17h 30m 16s
True Declination
0° 00' 00"
Sunlit
Object was in full shadow at epoch
Visualization orbit readout
Latitude
-75.59941°
Longitude
-140.12662°
Altitude
490.37 km
Speed
7.616 km/s
Apparent Right ascension
04h 09m 33s
Apparent Declination
-58° 24' 58"
Sunlit
Object is in daylight
Visualization observer readout
Local Sidereal Time
16:22:57
Azimuth
174.503° S
Elevation
-71.376°
Doppler factor
1
Orbital elements
Apogee altitude
460.126 km
Perigee altitude
452.41 km
Semi-major axis
6,834.405 km
Eccentricity
0.00056
Inclination
97.4066°
RAAN
262.5672°
Arg. of periapsis
96.0631°
True anomaly
Unknown
Mean anomaly
264.1256°
Eccentric anomaly
Unknown
Mean motion
3.84142 °/min
Orbital period
93.72 mins
BSTAR
0.00045239
Loading maneuver chart data...
Loading SW <> Apogee altitude chart data...
Loading historical data...
Loading historical data...
Loading historical data...
Loading historical data...
Loading historical data...
Loading historical data...
Loading historical data...

EAGLEEYE Visibility forecast

Observer location: undefined°, undefined°

Span
Click to sort rows by Start time (UTC) header in descending order
Start Az.
Max El. time (UTC)
Max El. Az.
Max El.
End time (UTC)
End Az.
6 mins2025-07-02 05:15:30.710Z160.345° S2025-07-02 05:18:30.710Z120.846° SE42.099°2025-07-02 05:21:30.710Z353.923° N
5 mins2025-07-02 18:13:30.710Z12.433° NNE2025-07-02 18:15:30.710Z189.245° SSW44.558°2025-07-02 18:18:30.710Z192.724° SSW
|